TimeCDT,TemperatureF,Dew PointF,Humidity,Sea Level PressureIn,VisibilityMPH,Wind Direction,Wind SpeedMPH,Gust SpeedMPH,PrecipitationIn,Events,Conditions,WindDirDegrees,DateUTC
12:53 AM,50.0,34.0,54,29.89,10.0,SSW,15.0,-,N/A,,Clear,200,2012-10-09 05:53:00
1:53 AM,50.0,34.0,54,29.89,10.0,SSW,13.8,-,N/A,,Clear,200,2012-10-09 06:53:00
2:53 AM,50.0,35.6,58,29.89,10.0,SSW,11.5,-,N/A,,Clear,210,2012-10-09 07:53:00
3:53 AM,50.0,35.6,58,29.88,10.0,SSW,10.4,-,N/A,,Clear,210,2012-10-09 08:53:00
4:53 AM,52.0,36.0,54,29.87,10.0,SSW,15.0,20.7,N/A,,Clear,210,2012-10-09 09:53:00
5:53 AM,52.0,36.0,54,29.87,10.0,SSW,11.5,-,N/A,,Clear,210,2012-10-09 10:53:00
6:53 AM,52.0,36.0,54,29.86,10.0,SW,13.8,-,N/A,,Partly Cloudy,220,2012-10-09 11:53:00
7:53 AM,50.0,37.0,61,29.86,10.0,SSW,12.7,-,N/A,,Mostly Cloudy,200,2012-10-09 12:53:00
8:53 AM,52.0,37.0,57,29.87,10.0,SSW,12.7,-,N/A,,Clear,210,2012-10-09 13:53:00
9:53 AM,55.9,37.0,49,29.88,10.0,WSW,16.1,-,N/A,,Clear,240,2012-10-09 14:53:00
10:53 AM,57.0,37.0,47,29.88,10.0,WSW,17.3,-,N/A,,Clear,240,2012-10-09 15:53:00
11:53 AM,57.9,37.9,47,29.87,10.0,SW,9.2,16.1,N/A,,Clear,230,2012-10-09 16:53:00
12:53 PM,59.0,37.9,46,29.87,10.0,SW,10.4,-,N/A,,Clear,220,2012-10-09 17:53:00
1:53 PM,61.0,37.9,42,29.87,10.0,SW,13.8,-,N/A,,Clear,230,2012-10-09 18:53:00
2:53 PM,57.0,41.0,55,29.89,10.0,NNW,20.7,27.6,N/A,,Overcast,330,2012-10-09 19:53:00
3:01 PM,57.2,41.0,55,29.89,10.0,NW,18.4,27.6,N/A,,Overcast,320,2012-10-09 20:01:00
3:53 PM,54.0,41.0,62,29.91,10.0,NW,19.6,25.3,N/A,,Overcast,320,2012-10-09 20:53:00
4:53 PM,46.9,42.1,83,29.96,5.0,NNW,19.6,27.6,0.03,Rain,Rain,330,2012-10-09 21:53:00
5:53 PM,45.0,42.1,90,29.96,10.0,NW,8.1,-,0.01,Rain,Light Rain,310,2012-10-09 22:53:00
6:53 PM,44.1,41.0,89,29.97,10.0,West,8.1,-,0.01,,Overcast,280,2012-10-09 23:53:00
7:53 PM,44.1,-9999,N/A,29.99,10.0,West,5.8,-,0.00,,Mostly Cloudy,280,2012-10-10 00:53:00
8:53 PM,44.1,-9999,N/A,30.01,10.0,West,8.1,-,N/A,,Partly Cloudy,270,2012-10-10 01:53:00
9:53 PM,41.0,-9999,N/A,30.04,10.0,West,8.1,-,N/A,,Clear,280,2012-10-10 02:53:00
10:53 PM,41.0,34.0,76,30.06,10.0,WNW,10.4,-,N/A,,Clear,300,2012-10-10 03:53:00
11:53 PM,39.0,32.0,76,30.08,10.0,NW,12.7,-,N/A,,Partly Cloudy,310,2012-10-10 04:53:00